Location: Banff
(51.1667°N, 115.5667°W)
Time: 06:39:07
(UTC+00:00)

N. Korean satellite - Pass Details

Date: 29 November 2022
Orbit: 407 x 442 km, 97.3° (Epoch: 04 February)

Event Time Altitude Azimuth Distance (km) Brightness Sun altitude
Rises 14:26:06 0° 358° (N) 2,534 9.9 -8.4°
Reaches altitude 10° 14:28:48 10° 336° (NNW) 1,650 8.8 -8.0°
Maximum altitude 14:30:56 15° 299° (WNW) 1,347 8.1 -7.7°
Drops below altitude 10° 14:33:02 10° 262° (W) 1,637 8.7 -7.4°
Sets 14:35:42 0° 239° (WSW) 2,501 9.9 -7.0°
